Location: Lucerne Valley
(34.4439°N, 116.9669°E)
Time: 14:48:37
(UTC-07:00)

ISS - Pass Details

Date: 15 October 2017
Orbit: 401 x 408 km, 51.6° (Epoch: 21 October)

Event Time Altitude Azimuth Distance (km) Brightness Sun altitude
Rises 04:51:39 0° 297° (WNW) 2,320 1.1 -28.3°
Reaches altitude 10° 04:54:08 10° 278° (W) 1,458 -0.1 -28.8°
Enters shadow 04:55:14 15° 261° (W) 1,182 -0.8 -29.0°
